| time (UTC) | temp F | wind direction | speed MPH | gust MPH | rain 1hr in | rain 24hr in | rain mn in | humidity % | barometer mb |
| 20260504190003 | 57 | 56 | 2.0 | 4.0 | 0.00 | 0.00 | 0.00 | 80 | 1017.6 |
| 20260504185403 | 58 | 58 | 2.0 | 4.0 | 0.00 | 0.00 | 0.00 | 80 | 1017.7 |
| 20260504184504 | 58 | 40 | 3.0 | 4.0 | 0.00 | 0.00 | 0.00 | 80 | 1017.4 |
| 20260504183603 | 58 | 73 | 4.0 | 6.0 | 0.00 | 0.00 | 0.00 | 79 | 1017.5 |
| 20260504182703 | 58 | 52 | 3.0 | 5.0 | 0.00 | 0.00 | 0.00 | 79 | 1017.8 |
| 20260504181803 | 58 | 61 | 4.0 | 6.0 | 0.00 | 0.00 | 0.00 | 78 | 1017.2 |
| 20260504180903 | 58 | 86 | 5.0 | 6.0 | 0.00 | 0.00 | 0.00 | 78 | 1017.4 |
| 20260504180214 | 59 | 64 | 4.0 | 6.0 | 0.00 | 0.00 | 0.00 | 77 | 1017.2 |
| 20260504175403 | 59 | 61 | 4.0 | 7.0 | 0.00 | 0.00 | 0.00 | 77 | 1017.3 |
| 20260504174503 | 59 | 52 | 4.0 | 7.0 | 0.00 | 0.00 | 0.00 | 77 | 1017.4 |
| 20260504173603 | 59 | 79 | 4.0 | 7.0 | 0.00 | 0.00 | 0.00 | 77 | 1017.3 |
| 20260504172703 | 59 | 33 | 4.0 | 4.0 | 0.00 | 0.00 | 0.00 | 76 | 1017.4 |
| 20260504171803 | 59 | 65 | 4.0 | 4.0 | 0.00 | 0.00 | 0.00 | 76 | 1017.2 |
| 20260504170903 | 59 | 3 | 4.0 | 8.0 | 0.00 | 0.00 | 0.00 | 77 | 1017.2 |
| 20260504170213 | 59 | 48 | 4.0 | 4.0 | 0.00 | 0.00 | 0.00 | 78 | 1017.2 |
| 20260504151113 | 67 | 219 | 5.0 | 6.0 | 0.00 | 0.00 | 0.00 | 53 | 1017.1 |
| 20260504140903 | 67 | 205 | 6.0 | 11.0 | 0.00 | 0.00 | 0.00 | 52 | 1017.0 |
| 20260504100212 | 64 | 84 | 3.0 | 4.0 | 0.00 | 0.00 | 0.00 | 60 | 1017.6 |
| 20260504081803 | 61 | 214 | 2.0 | 2.0 | 0.00 | 0.00 | 0.00 | 67 | 1017.2 |
| 20260504080903 | 61 | 247 | 1.0 | 2.0 | 0.00 | 0.00 | 0.00 | 68 | 1017.2 |
| 20260504070213 | 59 | 171 | 3.0 | 4.0 | 0.00 | 0.00 | 0.00 | 78 | 1016.9 |
| 20260504050003 | 51 | 225 | 0.0 | 1.0 | 0.00 | 0.00 | 0.00 | 94 | 1015.6 |
| 20260504045403 | 51 | 0 | 0.0 | 0.0 | 0.00 | 0.00 | 0.00 | 94 | 1015.5 |
| 20260504044503 | 51 | 225 | 0.0 | 1.0 | 0.00 | 0.00 | 0.00 | 94 | 1015.3 |
| 20260504043603 | 51 | 225 | 0.0 | 2.0 | 0.00 | 0.00 | 0.00 | 95 | 1015.4 |
| 20260504042703 | 52 | 225 | 0.0 | 1.0 | 0.00 | 0.00 | 0.00 | 95 | 1015.5 |
| 20260504041803 | 52 | 225 | 0.0 | 2.0 | 0.00 | 0.00 | 0.00 | 95 | 1015.3 |
| 20260504040903 | 52 | 184 | 1.0 | 2.0 | 0.00 | 0.00 | 0.00 | 95 | 1015.5 |
| 20260504040003 | 52 | 167 | 1.0 | 1.0 | 0.00 | 0.00 | 0.00 | 95 | 1015.4 |
| 20260504035403 | 52 | 204 | 1.0 | 2.0 | 0.00 | 0.00 | 0.00 | 95 | 1015.5 |
| 20260504034713 | 52 | 207 | 1.0 | 2.0 | 0.00 | 0.00 | 0.00 | 95 | 1015.3 |
| 20260504033812 | 52 | 202 | 1.0 | 2.0 | 0.00 | 0.00 | 0.00 | 95 | 1015.5 |
| 20260504032703 | 53 | 197 | 1.0 | 2.0 | 0.00 | 0.00 | 0.00 | 95 | 1015.5 |
| 20260504031803 | 53 | 198 | 1.0 | 2.0 | 0.00 | 0.00 | 0.00 | 95 | 1015.6 |
| 20260504030903 | 53 | 174 | 1.0 | 2.0 | 0.00 | 0.00 | 0.00 | 95 | 1015.6 |
| 20260504030003 | 53 | 176 | 1.0 | 2.0 | 0.00 | 0.00 | 0.00 | 95 | 1015.6 |
| 20260504025403 | 53 | 180 | 0.0 | 1.0 | 0.00 | 0.00 | 0.00 | 95 | 1015.6 |
| 20260504024503 | 53 | 0 | 0.0 | 0.0 | 0.00 | 0.00 | 0.00 | 95 | 1015.5 |
| 20260504023603 | 53 | 180 | 1.0 | 2.0 | 0.00 | 0.00 | 0.00 | 95 | 1015.5 |
| 20260504022703 | 53 | 134 | 0.0 | 2.0 | 0.00 | 0.00 | 0.00 | 94 | 1015.7 |
| 20260504021803 | 52 | 159 | 1.0 | 2.0 | 0.00 | 0.00 | 0.00 | 94 | 1015.3 |
| 20260504020903 | 52 | 143 | 1.0 | 2.0 | 0.00 | 0.00 | 0.00 | 94 | 1015.2 |
| 20260504020003 | 52 | 169 | 1.0 | 2.0 | 0.00 | 0.00 | 0.00 | 94 | 1015.5 |
| 20260504015403 | 52 | 180 | 0.0 | 2.0 | 0.00 | 0.00 | 0.00 | 94 | 1015.6 |
| 20260504014503 | 52 | 93 | 0.0 | 1.0 | 0.00 | 0.00 | 0.00 | 94 | 1015.4 |
| 20260504013814 | 52 | 116 | 0.0 | 1.0 | 0.00 | 0.00 | 0.00 | 94 | 1015.6 |
| 20260504012913 | 52 | 176 | 1.0 | 2.0 | 0.00 | 0.01 | 0.00 | 94 | 1015.4 |
| 20260504011803 | 52 | 195 | 1.0 | 2.0 | 0.00 | 0.01 | 0.00 | 94 | 1015.5 |
| 20260504010903 | 52 | 159 | 1.0 | 2.0 | 0.00 | 0.01 | 0.00 | 94 | 1015.3 |
| 20260504010004 | 52 | 199 | 2.0 | 3.0 | 0.00 | 0.01 | 0.00 | 94 | 1015.6 |
| 20260504005403 | 52 | 211 | 2.0 | 3.0 | 0.00 | 0.01 | 0.00 | 94 | 1015.5 |
| 20260504004503 | 52 | 188 | 2.0 | 3.0 | 0.00 | 0.01 | 0.00 | 94 | 1015.4 |
| 20260504003603 | 52 | 200 | 2.0 | 3.0 | 0.00 | 0.01 | 0.00 | 94 | 1015.2 |
| 20260504002703 | 52 | 204 | 2.0 | 3.0 | 0.00 | 0.02 | 0.00 | 94 | 1015.4 |
| 20260504001803 | 52 | 201 | 3.0 | 4.0 | 0.00 | 0.02 | 0.00 | 94 | 1015.4 |
| 20260504000903 | 52 | 205 | 2.0 | 4.0 | 0.00 | 0.02 | 0.00 | 93 | 1015.5 |
| 20260504000213 | 52 | 205 | 2.0 | 2.0 | 0.00 | 0.02 | 0.00 | 93 | 1015.3 |
| 20260503235403 | 53 | 208 | 2.0 | 2.0 | 0.00 | 0.07 | 0.00 | 93 | 1015.4 |
| 20260503234503 | 53 | 195 | 2.0 | 3.0 | 0.00 | 0.07 | 0.00 | 93 | 1015.3 |
| 20260503233603 | 53 | 195 | 2.0 | 2.0 | 0.00 | 0.07 | 0.00 | 93 | 1015.4 |
| 20260503232914 | 53 | 171 | 1.0 | 2.0 | 0.00 | 0.09 | 0.00 | 92 | 1015.3 |
| 20260503231803 | 53 | 186 | 1.0 | 2.0 | 0.00 | 0.09 | 0.00 | 92 | 1015.4 |
| 20260503230903 | 53 | 116 | 1.0 | 2.0 | 0.00 | 0.09 | 0.00 | 92 | 1015.5 |
| 20260503230003 | 53 | 144 | 2.0 | 4.0 | 0.00 | 0.09 | 0.00 | 92 | 1015.6 |
| 20260503225403 | 53 | 190 | 3.0 | 4.0 | 0.00 | 0.09 | 0.09 | 92 | 1015.4 |
| 20260503224503 | 53 | 115 | 2.0 | 4.0 | 0.00 | 0.09 | 0.09 | 92 | 1014.9 |
| 20260503223603 | 53 | 201 | 3.0 | 5.0 | 0.00 | 0.48 | 0.09 | 92 | 1015.2 |
| 20260503222703 | 53 | 192 | 2.0 | 5.0 | 0.00 | 0.48 | 0.09 | 92 | 1015.2 |
| 20260503221803 | 52 | 202 | 2.0 | 3.0 | 0.00 | 0.48 | 0.09 | 92 | 1015.3 |
| 20260503220903 | 52 | 208 | 1.0 | 2.0 | 0.00 | 0.48 | 0.09 | 91 | 1015.0 |
| 20260503220003 | 52 | 193 | 1.0 | 2.0 | 0.00 | 0.48 | 0.09 | 91 | 1015.0 |
| 20260503215403 | 52 | 225 | 0.0 | 2.0 | 0.00 | 0.48 | 0.09 | 91 | 1015.1 |
| 20260503214503 | 52 | 184 | 1.0 | 2.0 | 0.00 | 0.48 | 0.09 | 91 | 1014.8 |
| 20260503213814 | 52 | 219 | 1.0 | 2.0 | 0.00 | 0.48 | 0.09 | 90 | 1014.9 |
| 20260503212703 | 52 | 285 | 1.0 | 2.0 | 0.00 | 0.48 | 0.09 | 90 | 1015.0 |
| 20260503211803 | 52 | 212 | 1.0 | 2.0 | 0.00 | 0.48 | 0.09 | 90 | 1015.0 |
| 20260503210903 | 52 | 190 | 2.0 | 4.0 | 0.00 | 0.48 | 0.09 | 90 | 1014.7 |
| 20260503210003 | 53 | 204 | 2.0 | 4.0 | 0.00 | 0.48 | 0.09 | 90 | 1014.7 |
| 20260503205403 | 53 | 194 | 3.0 | 4.0 | 0.00 | 0.48 | 0.09 | 90 | 1014.6 |
| 20260503204503 | 53 | 216 | 3.0 | 4.0 | 0.00 | 0.48 | 0.09 | 90 | 1014.5 |
| 20260503203603 | 53 | 195 | 2.0 | 4.0 | 0.00 | 0.48 | 0.09 | 90 | 1014.6 |
| 20260503202703 | 53 | 191 | 3.0 | 4.0 | 0.00 | 0.48 | 0.09 | 90 | 1014.5 |
| 20260503201803 | 53 | 196 | 3.0 | 4.0 | 0.00 | 0.48 | 0.09 | 90 | 1014.3 |
| 20260503200903 | 53 | 216 | 3.0 | 4.0 | 0.00 | 0.48 | 0.09 | 90 | 1014.2 |
| 20260503200003 | 53 | 195 | 4.0 | 4.0 | 0.00 | 0.48 | 0.09 | 90 | 1014.1 |
| 20260503195403 | 53 | 190 | 3.0 | 4.0 | 0.00 | 0.48 | 0.09 | 90 | 1014.1 |
| 20260503194503 | 53 | 195 | 3.0 | 5.0 | 0.00 | 0.48 | 0.09 | 89 | 1013.8 |
| 20260503193813 | 53 | 190 | 4.0 | 5.0 | 0.00 | 0.48 | 0.09 | 88 | 1013.9 |
| 20260503192703 | 54 | 187 | 4.0 | 4.0 | 0.00 | 0.48 | 0.09 | 87 | 1013.8 |
| 20260503191803 | 54 | 204 | 3.0 | 5.0 | 0.00 | 0.48 | 0.09 | 85 | 1013.8 |
| 20260503190903 | 55 | 212 | 3.0 | 4.0 | 0.00 | 0.48 | 0.09 | 81 | 1013.6 |